Powrót do katalogu

FENGYUN 1C DEB

AktywnySSO
NORAD 31212·DEBRIS·🇨🇳 China

Wystrzelony May 10, 1999 z Taiyuan Satellite Launch Center

Loading…

Następne Przeloty (najbliższe 24 godziny)

TLE

ŚwieżeSource: Space-Track

Epoka: Sep 13, 2026, 15:13 UTC

1 31212U 99025BKS 26256.63468967  .00001508  00000-0  79168-3 0  9992
2 31212  99.1974 301.1953 0074950 119.8950 240.9695 14.14313729995430

Śledź FENGYUN 1C DEB w czasie rzeczywistym z AllMySat

Download on the App Store